Regional Weather Roundup
Issued by NWS Cleveland, OH

Home | Current Version | Previous Version | Graphics & Text | Print | Product List | Glossary On
Versions: 1 2 3 4 5 6 7 8 9 10 11 12 13 14 15 16 17 18 19 20 21 22 23 24 25 26 27 28 29 30 31 32 33 34 35 36 37 38 39 40 41 42 43 44 45 46 47 48 49 50
000
ASUS41 KCLE 011500
RWRCLE
OHIO REGIONAL WEATHER ROUNDUP
NATIONAL WEATHER SERVICE WILMINGTON, OH
1100 AM EDT MON SEP 01 2014

NOTE: "FAIR" INDICATES FEW OR NO CLOUDS BELOW 12,000 FEET WITH NO
SIGNIFICANT WEATHER AND/OR OBSTRUCTIONS TO VISIBILITY.

OHZ001>008-015>018-024>027-034-035-043-044-011600-
   NORTHWEST OHIO

CITY           SKY/WX    TMP DP  RH WIND       PRES   REMARKS
DEFIANCE       CLOUDY    78  70  76 S13G21    29.89F
FINDLAY        PTSUNNY   77  70  79 S12       29.93F
TOLEDO EXPRESS CLOUDY    75  70  84 S9        29.91F
TOLEDO METCALF CLOUDY    75  68  78 S16       29.93F
LIMA           PTSUNNY   78  71  79 S15       29.95F
$$

OHZ009>014-019>023-028>033-038-089-011600-
   NORTHEAST OHIO

CITY           SKY/WX    TMP DP  RH WIND       PRES   REMARKS
CLE-HOPKINS    PTSUNNY   76  70  82 S12       29.99F
CLE-LAKEFRONT  PTSUNNY   78  68  71 S14       29.95F
CUY CO. ARPT   PTSUNNY   77  72  83 S14       29.98S
LORAIN-ELYRIA  PTSUNNY   80  69  69 SW14      29.97F
ASHTABULA      CLOUDY    74  69  85 S7        30.00R
AKRON-CANTON   CLOUDY    74  67  78 S9        30.02R
WOOSTER        CLOUDY    72  68  88 S9        30.02S
MANSFIELD      CLOUDY    75  69  81 S9        30.00F
YOUNGSTOWN     CLOUDY    75  68  78 VRB7      30.01S
$$

OHZ042-051>053-060>062-070>072-077>081-011600-
  SOUTHWEST OHIO

CITY           SKY/WX    TMP DP  RH WIND       PRES   REMARKS
CINC-COVINGTON PTSUNNY   78  73  84 SW9       30.01S
CINC-LUNKEN    CLOUDY    78  74  87 SW12G18   30.01S
HAMILTON       PTSUNNY   80  74  81 VRB7      30.00S
DAYTON         NOT AVBL
WRIGHT-PAT AFB NOT AVBL
DAYTON GENERAL CLOUDY    76  72  87 S10G17    29.99S
WILMINGTON     CLOUDY    74  72  93 SW8       30.01S FOG
$$

OHZ036-037-039>041-045>050-054>059-063>069-073>076-082>088-011600-
  CENTRAL AND SOUTHEAST OHIO

CITY           SKY/WX    TMP DP  RH WIND       PRES   REMARKS
COLUMBUS       PTSUNNY   79  70  74 S8        30.00F
OSU AIRPORT    CLOUDY    78  71  79 S8        30.00F
BOLTON FIELD   CLOUDY    77  73  88 S10G18    30.01F
RICKENBACK AFB NOT AVBL
NEWARK         CLOUDY    77  71  82 SW10      30.01F
MARION         PTSUNNY   76  70  82 SW13      29.99S
LANCASTER      PTSUNNY   78  71  79 S7G16     30.02F
ZANESVILLE     PTSUNNY   77  70  79 SW6       30.03F
NEW PHILLY     LGT RAIN  74  69  85 S7        30.03S
$$



USA.gov is the U.S. government's official web portal to all federal, state and local government web resources and services.